Regional Weather Roundup
Issued by NWS Sioux Falls, SD

Home | Current Version | Previous Version | Graphics & Text | Print | Product List | Glossary Off
Versions: 1 2 3 4 5 6 7 8 9 10 11 12 13 14 15 16 17 18 19 20 21 22 23 24 25 26 27 28 29 30 31 32 33 34 35 36 37 38 39 40 41 42 43 44 45 46 47 48 49 50

000
ASUS43 KFSD 291002
RWRFSD

WEATHER ROUNDUP FOR SE SOUTH DAKOTA/SW MINNESOTA/NW IOWA
NATIONAL WEATHER SERVICE SIOUX FALLS SD
500 AM CDT SAT AUG 29 2015

NOTE: "FAIR" INDICATES FEW OR NO CLOUDS BELOW 12,000 FEET WITH NO
SIGNIFICANT WEATHER AND OR OBSTRUCTIONS TO VISIBILITY.


SDZ038>040-050-052>070-291100-
SOUTHEAST SOUTH DAKOTA

CITY           SKY/WX    TMP DP  RH WIND       PRES   REMARKS
BROOKINGS      PTCLDY    55  52  88 CALM      30.05S
CHAMBERLAIN    CLEAR     61  61  99 S3        30.00S
HURON          CLEAR     60  58  92 S9        30.00R
MADISON        FAIR      54  54 100 CALM      30.03S
MITCHELL       CLEAR     60  58  92 S8        30.02R
SIOUX FALLS    CLEAR     54  53  97 CALM      30.04R
WINNER         FAIR      66  61  84 S12       30.01F
YANKTON          N/A     54  52  94 CALM      30.04R VSB<1/4
$$

MNZ071-072-080-081-089-090-097-098-291100-
SOUTHWEST MINNESOTA

CITY           SKY/WX    TMP DP  RH WIND       PRES   REMARKS
FAIRMONT       CLOUDY    57  52  82 N3        30.02S VSB 1
JACKSON        FOG       57  55  94 CALM      30.04S VSB 3/4
LUVERNE        FOG       52  50  93 CALM      30.05R VSB 1
MARSHALL       CLEAR     54  48  82 SW7       30.02F
MONTEVIDEO     CLEAR     55  54  94 S3        30.03S
PIPESTONE      PTCLDY    52  52 100 CALM      30.04R
REDWOOD FALLS  MOCLDY    52  51  97 CALM      30.02S
TRACY          CLEAR     54  53  97 CALM      30.03F
WINDOM         CLOUDY    57  55  94 CALM      30.04R FOG
WORTHINGTON    CLOUDY    52  46  82 CALM      30.04S VSB 1/4
$$

IAZ001>003-012>014-020>022-031-032-NEZ013-014-SDZ071-291100-
NORTHWEST IOWA

CITY           SKY/WX    TMP DP  RH WIND       PRES   REMARKS
DENISON        CLOUDY    59  59 100 N9        29.99S FOG
ESTHERVILLE    FOG       56  56 100 NE7       30.03S VSB 1/2
SIOUX CITY     CLOUDY    62  56  80 NE5       30.03R
SPENCER        CLOUDY    58  55  90 NE8       30.04R FOG
$$

ABBREVIATIONS USED IN REMARKS
   TC - TEMPERATURE IN CELSIUS
  WCI - WIND CHILL INDEX
   HX - HEAT INDEX
  VSB - VISIBILITY




USA.gov is the U.S. government's official web portal to all federal, state and local government web resources and services.